Simultaneous Nadir Overpasses (SNOs) Predictions

Prediction of SNOs over PacNW region [( 10.00, 139.50) to ( 22.70, 165.60)] between AQUA and NPP Satellites:

Table of predicted SNOs over PacNW region for the next 30.0 days since TLE Epoch: 6/7/2015
Index Date (AQUA) Time (AQUA) AQUA Lat,Lon Date (NPP) Time (NPP) NPP Lat,Lon Distance(km) Time Diff (sec)
1 06/15/2015 02:41:45 17.56, 160.97 06/15/2015 02:39:40 17.32, 159.76 131.67 125
2 06/23/2015 03:29:54 13.12, 149.61 06/23/2015 03:29:03 12.79, 148.12 164.82 51
3 07/01/2015 02:41:31 17.48, 161.01 07/01/2015 02:39:28 17.25, 159.76 135.43 123




NCC Satellite Simultaneous Nadir Overpasses (SNOs) Prediction Service
